Regional Weather Roundup
Issued by NWS

Home | Current Version | Previous Version | Text Only | Print | Product List | Glossary On
Versions: 1 2 3 4 5 6 7 8 9 10 11 12 13 14 15 16 17 18 19 20 21 22 23 24 25 26 27 28 29 30 31 32 33 34 35 36 37 38 39 40 41 42 43 44 45 46 47 48 49 50
000
ASUS45 KPSR 181910
RWRAZ

ARIZONA HOURLY REGIONAL WEATHER ROUNDUP
NATIONAL WEATHER SERVICE PHOENIX AZ
1200 PM MST MON DEC 18 2017

NOTE: FAIR INDICATES FEW OR NO CLOUDS BELOW 12,000 FEET WITH NO
SIGNIFICANT WEATHER AND/OR OBSTRUCTIONS TO VISIBILITY.

AZZ001>003-036-182000-
NORTHWEST ARIZONA

CITY           SKY/WX    TMP DP  RH WIND       PRES   REMARKS
BULLHEAD CITY  SUNNY     59  16  18 N20G28    30.20F
KINGMAN        SUNNY     50  19  29 N7        30.22F
$$

AZZ004>008-015-016-018-182000-
NORTH CENTRAL ARIZONA

CITY           SKY/WX    TMP DP  RH WIND       PRES   REMARKS
GRAND CANYON   SUNNY     48   7  18 VRB3      30.20F
PRESCOTT       SUNNY     49  14  24 CALM      30.17F
FLAGSTAFF      SUNNY     46  10  23 E8        30.18F
PAYSON         SUNNY     50  18  27 SW8       30.15F
PAGE           SUNNY     40  18  41 N5        30.24F
$$

AZZ009>014-017-182000-
NORTHEAST ARIZONA

CITY           SKY/WX    TMP DP  RH WIND       PRES   REMARKS
WINSLOW        SUNNY     44  16  32 NW6       30.21F
SAINT JOHNS    PTSUNNY   38  19  46 NW6       30.17F WCI  33
WINDOW ROCK    SUNNY     48   7  18 CALM      30.16F
SHOW LOW       SUNNY     41  19  42 N8        30.19F
$$

AZZ540-542>544-546-548-182000-
GREATER PHOENIX AREA

CITY           SKY/WX    TMP DP  RH WIND       PRES   REMARKS
PHOENIX        MOSUNNY   63  41  44 CALM      30.12F
BUCKEYE        SUNNY     59  48  67 S5        30.15F
GLENDALE       SUNNY     63  34  34 CALM      30.15F
LUKE AFB       SUNNY     61  29  29 CALM      30.12F
DEER VALLEY    SUNNY     59  39  47 SW6       30.13F
SCOTTSDALE     SUNNY     59  39  47 VRB3      30.14F
MESA-FALCON    MOSUNNY   61  41  48 S5        30.14F
MESA-GATEWAY   SUNNY     57  45  62 CALM      30.14F
CHANDLER       SUNNY     61  43  51 SE6       30.14F
$$

AZZ539-553-182000-
SOUTHWEST MARICOPA COUNTY AND PINAL COUNTY

CITY           SKY/WX    TMP DP  RH WIND       PRES   REMARKS
CASA GRANDE    NOT AVBL
GILA BEND      SUNNY     59  32  36 NW2       30.15S
$$

AZZ503-504-507>509-182000-
SOUTHEAST ARIZONA

CITY           SKY/WX    TMP DP  RH WIND       PRES   REMARKS
TUCSON         CLOUDY    53  46  77 SW5       30.15F
DAVIS-MONTHAN  SUNNY     55  44  66 CALM      30.13F
RYAN FIELD     SUNNY     54  45  71 NE6       30.16F
NOGALES        CLOUDY    50  39  66 CALM      30.13F
SIERRA VISTA   CLOUDY    44  36  71 CALM      30.16F
DOUGLAS        PTSUNNY   48  40  73 VRB3      30.16F
SAFFORD        PTSUNNY   49  43  80 CALM      30.16F
$$

AZZ532-182000-
SOUTHWEST ARIZONA

CITY           SKY/WX    TMP DP  RH WIND       PRES   REMARKS
YUMA           SUNNY     65  16  15 N15       30.16F
$$

CAZ041-043-047-048-061-525>527-560>570-182000-
SOUTHERN CALIFORNIA

CITY           SKY/WX    TMP DP  RH WIND       PRES   REMARKS
DOWNTOWN L.A.  SUNNY     67  20  16 CALM      30.17F
L.A. AIRPORT   MOSUNNY   69  19  15 VRB3      30.18F
SAN DIEGO      MOSUNNY   68  29  23 CALM      30.18F
BURBANK        SUNNY     82  18   9 CALM      30.18F
ONTARIO        MOSUNNY   63  16  16 VRB3      30.18F
RIVERSIDE      SUNNY     67  16  14 E6        30.18F
PALM SPRINGS   SUNNY     71  13  10 NW5       30.17F
EL CENTRO NAS  SUNNY     66  17  15 CALM      30.19F
IMPERIAL       SUNNY     65  20  17 CALM      30.17F
BLYTHE         SUNNY     63  16  16 N16       30.19F
NEEDLES        SUNNY     61  18  18 N12       30.20F
$$

NVZ020-UTZ003-182000-
SOUTHERN NEVADA-UTAH

CITY           SKY/WX    TMP DP  RH WIND       PRES   REMARKS
LAS VEGAS      MOSUNNY   53  15  22 NE3       30.25F
SALT LAKE CITY PTSUNNY   39  24  55 S10       30.28F WCI  32
$$

NMZ009-TXZ055-182000-
NEW MEXICO-WEST TEXAS

CITY           SKY/WX    TMP DP  RH WIND       PRES   REMARKS
ALBUQUERQUE    CLOUDY    39  23  52 NW6       30.17F WCI  35
EL PASO        PTSUNNY   54  45  71 CALM      30.14F
$$


........................KEY........................
SKY/WX - SKY CONDITION/WEATHER
TMP    - TEMPERATURE IN FAHRENHEIT
DP     - DEW POINT IN FAHRENHEIT
RH     - RELATIVE HUMIDITY IN PERCENT
WIND   - DIRECTION AND SPEED IN MILES PER HOUR (MPH)
VRB    - VARIABLE WIND DIRECTION
PRES   - MEAN SEA LEVEL PRESSURE IN INCHES OF MERCURY
         F - FALLING PRESSURE   R - RISING PRESSURE
         S - STEADY PRESSURE
VSB    - VISIBILITY IN MILES
HX     - HEAT INDEX IN FAHRENHEIT
WCI    - WIND CHILL INDEX IN FAHRENHEIT
TC     - TEMPERATURE IN CELSIUS WHICH IS ALSO KNOWN AS
         TEMPERATURE IN CENTIGRADE
AFB    - AIR FORCE BASE
         LUKE AFB IS LUKE AIR FORCE BASE
         DAVIS-MONTHAN IS DAVIS-MONTHAN AIR FORCE BASE
NAS    - NAVAL AIR STATION
         EL CENTRO NAS IS EL CENTRO NAVAL AIR STATION
N/A    - NOT AVAILABLE




USA.gov is the U.S. government's official web portal to all federal, state and local government web resources and services.